{"data":{"norad_id":59716,"epoch":"2026-09-21T17:36:26.082144Z","epoch_age_seconds":64764,"freshness":"FRESH","line1":"1 59716U 24088J   26264.73363521  .00009886  00000+0  86524-4 0  9999","line2":"2 59716  53.1596  79.8088 0001337 102.6604 257.4564 15.69662623137068","mean_motion":15.69662623,"eccentricity":0.0001337,"inclination_deg":53.1596,"raan_deg":79.8088,"arg_perigee_deg":102.6604,"mean_anomaly_deg":257.4564,"bstar":8.6524e-5,"rev_number":13706,"period_min":91.739459097766,"perigee_km":358.96145815861,"apogee_km":360.7631991791,"semimajor_km":6737.9993286689,"source":"CELESTRAK","updated_at":"2026-09-22T09:00:49.058878Z"}}